SCP
0 0 0 0 -0 -0 0 0 0 0 -0 -0 0 -0 0 0 0 0 0 1 2 2 2 2 1 0 0 0 0 0 0 0 0 0 0 0 0 0 0 0 0 0 0 0
0 0 0 0 0 0 0 0 -0 -0 -0 -0 0 0 0 0 0 0 0 0 1 2 1 1 0 0 0 0 0 0 0 0 0 0 0 0 0 0 0 0 0 0 0 0
-0 -0 -0 0 0 0 0 -0 -0 -0 -0 -0 -0 0 0 0 0 0 0 0 1 1 1 1 0 0 0 0 0 0 0 0 0 0 0 0 0 0 -0 0 0 0 0 0
0 0 0 -0 -0 0 0 0 0 -0 -0 -0 0 -0 0 0 0 0 0 0 1 0 0 1 0 0 0 0 0 0 0 0 0 0 -0 0 -0 -0 0 0 -0 0 0 0
-0 -0 0 -0 -0 0 0 0 -0 -0 0 -0 0 0 0 0 0 0 0 0 1 0 0 1 0 0 0 0 0 0 0 0 0 -0 -0 0 -0 -0 0 -0 -0 0 0 0
0 0 0 0 0 -0 0 -0 0 0 0 0 0 0 0 0 0 0 0 0 0 0 0 0 0 0 0 0 0 -0 0 -0 0 -0 -0 -0 -0 0 0 -0 0 0 -0 -0
0 0 0 -0 -0 0 0 -0 0 0 0 0 0 0 0 0 0 0 2 1 0 0 -0 0 0 0 0 -0 -0 0 -0 0 0 0 0 0 0 0 -0 -0 0 0 -0 -0
0 0 0 0 -0 0 0 -0 0 0 0 0 0 0 0 0 0 0 1 1 0 0 -0 0 0 -0 0 -0 0 0 0 -0 -0 0 0 -0 -0 0 0 0 0 0 0 -0
0 0 0 -0 -0 -0 -0 -0 0 0 0 0 0 0 0 0 0 0 0 0 0 0 0 0 0 -0 -0 0 -0 0 -0 -0 -0 -0 0 -0 -0 -0 0 0 0 -0 -0 0
0 0 -0 -0 -0 -0 0 0 0 0 0 0 0 0 0 0 0 0 1 0 0 0 0 0 -0 0 -0 -0 -0 -0 -0 -0 -0 -0 -0 0 0 0 0 0 0 -0 0 -0
-0 0 -0 0 -0 0 0 0 0 0 0 0 0 0 1 1 3 1 0 -0 0 0 0 -0 -0 -0 0 -0 -0 0 -0 -0 0 0 0 -0 0 0 0 0 0 0 0 -0
-0 0 0 -0 -0 0 0 0 0 0 0 0 1 0 0 1 2 1 1 0 0 0 0 0 -0 -0 -0 -0 -0 -0 -0 -0 0 -0 -0 0 0 0 0 0 0 0 0 0
0 -0 0 -0 0 0 0 0 0 0 0 0 0 0 0 0 1 1 1 1 0 0 0 -0 -0 0 -0 -0 0 -0 -0 -0 0 0 -0 -0 0 0 0 0 -0 -0 -0 -0
0 0 0 0 0 0 0 0 0 0 0 0 0 0 0 0 0 0 0 0 1 0 0 -0 -0 0 -0 -0 -0 0 0 -0 -0 -0 -0 -0 -0 -0 -0 -0 0 -0 -0 -0
0 0 0 0 0 0 0 0 0 0 0 0 0 0 0 0 0 0 0 0 0 0 0 0 0 0 0 0 0 0 0 0 0 0 0 -0 -0 -0 -0 -0 -0 0 -0 0
0 0 0 0 0 0 0 0 0 0 0 0 0 0 0 0 0 0 0 0 0 0 0 0 0 0 0 0 -0 0 0 0 0 0 -0 0 0 0 0 -0 -0 -0 -0 -0
0 0 0 0 0 0 0 0 0 0 0 0 0 0 0 0 0 0 0 0 0 -0 0 0 0 0 0 0 0 0 0 0 0 0 0 -0 -0 0 -0 0 0 0 0 0
-0 -0 0 0 0 0 0 0 0 0 0 0 0 0 0 0 0 0 0 0 0 -0 0 0 0 0 0 0 0 0 0 0 0 0 0 0 0 0 -0 0 0 0 0 -0
-0 -0 -0 0 0 0 0 0 0 0 0 0 0 0 0 0 0 0 0 0 0 0 0 0 0 0 0 0 0 0 0 0 0 0 0 0 0 0 0 -0 -0 -0 -0 0
0 -0 -0 -0 0 0 0 0 0 0 0 0 0 0 0 0 0 0 0 0 0 0 0 0 0 0 0 0 0 0 0 0 0 0 0 0 0 0 0 0 0 0 0 -0
0 0 0 -0 -0 0 -0 0 0 0 0 0 0 0 0 0 0 0 0 0 0 0 0 0 0 0 0 0 0 0 0 0 0 0 0 0 0 0 0 0 0 0 0 0
-0 0 0 0 0 0 0 0 0 0 0 0 0 0 0 0 0 0 0 0 0 0 0 0 0 0 0 0 0 0 0 0 0 0 0 0 0 0 0 0 0 0 0 0
-0 0 0 0 0 -0 0 0 0 0 0 0 0 0 0 0 0 0 0 0 0 0 0 0 0 0 0 0 0 0 0 0 0 0 0 0 0 0 0 0 0 0 0 0
-0 0 0 0 0 0 0 0 0 -0 0 0 0 0 0 0 0 0 0 0 0 0 0 0 0 0 0 0 0 0 0 0 0 0 0 0 0 0 0 0 0 0 0 0
0 0 -0 -0 -0 -0 -0 -0 -0 -0 -0 0 0 0 0 0 0 0 0 0 0 0 0 0 0 0 0 0 0 0 0 0 0 0 0 0 0 0 0 0 0 0 0 0
0 -0 -0 -0 0 -0 -0 -0 -0 0 0 0 0 0 0 0 0 0 0 0 0 0 0 0 0 0 0 0 0 0 0 0 0 0 0 0 0 0 0 0 0 0 0 0
-0 0 0 -0 -0 -0 -0 -0 -0 -0 0 0 0 0 0 0 0 0 0 0 0 0 0 0 0 0 0 0 0 0 0 0 0 0 0 0 0 0 0 0 0 0 0 0
Wind_Speed_500mb
49 55 47 34 40 25 34 39 42 41 25 28 50 59 18 21 27 25 24 13 4 7 22 35 44 46 46 45 44 41 40 38 36 33 30 29 29 28 27 27 25 21 17 15
43 46 51 46 44 35 37 50 49 45 41 29 44 50 32 25 25 26 16 13 13 16 26 33 46 47 46 44 40 37 36 34 32 31 30 30 29 30 27 26 24 20 20 11
37 40 43 39 43 39 39 46 44 43 41 32 35 36 30 31 27 28 14 9 22 32 31 39 47 47 44 41 39 38 35 33 31 30 33 33 32 31 28 25 26 19 15 11
18 25 18 30 27 21 21 29 43 45 40 37 35 40 45 39 32 25 20 6 27 39 48 33 47 45 42 42 40 37 33 30 30 29 31 30 31 29 28 24 22 17 13 11
10 19 31 37 7 20 20 39 38 41 39 30 37 39 40 41 34 31 26 18 28 42 51 40 48 45 44 42 37 34 34 25 24 33 30 32 31 30 25 23 20 15 12 11
8 10 9 10 16 46 23 29 31 31 38 33 26 21 18 15 23 12 21 28 38 48 60 47 49 45 44 40 37 31 28 27 28 26 28 30 30 27 22 19 16 13 12 10
24 16 12 16 23 23 21 2 15 17 12 18 15 25 17 7 16 25 15 23 54 57 68 49 50 47 42 40 38 30 32 29 30 27 27 31 28 24 21 19 18 16 14 11
8 13 10 18 32 20 27 43 36 35 19 22 31 31 27 27 24 25 22 29 59 68 59 53 50 46 42 40 33 30 34 32 32 28 28 28 23 20 20 21 19 16 14 13
5 8 24 41 42 72 82 70 59 43 34 26 29 36 32 25 23 28 31 49 62 66 61 51 48 46 43 40 36 33 36 33 30 29 27 21 22 22 22 21 18 18 16 13
8 8 23 32 37 53 26 28 38 40 42 37 33 41 25 12 28 33 20 66 61 61 58 52 48 45 42 47 29 37 35 31 27 26 22 20 13 16 17 22 22 18 20 18
21 9 34 14 44 53 45 23 9 21 31 38 22 10 10 17 19 20 38 46 55 54 52 51 51 48 45 43 41 43 34 32 25 18 21 13 19 14 11 16 16 17 17 20
8 42 22 25 42 47 37 32 25 22 24 17 9 8 14 16 10 32 33 49 47 47 50 51 52 51 46 44 39 39 30 28 23 24 21 21 18 17 12 11 19 21 18 22
13 30 29 29 31 40 34 30 30 27 32 29 26 25 14 14 18 24 42 45 48 50 50 51 49 46 45 48 39 33 28 29 22 22 32 28 20 18 17 21 21 24 22 14
32 30 28 35 31 38 27 32 33 31 29 30 22 30 30 27 26 49 36 39 49 49 50 48 43 40 36 37 35 31 28 26 23 29 21 27 21 20 21 18 17 17 17 16
28 32 23 34 33 35 38 33 35 38 34 32 28 33 43 39 38 36 39 48 63 45 41 37 37 29 28 37 34 33 27 27 20 27 25 25 22 24 15 22 24 19 24 25
29 33 30 38 41 40 34 36 36 40 40 38 39 36 31 32 34 43 47 43 45 54 42 26 22 15 11 36 34 32 24 24 13 25 20 23 24 24 26 26 25 21 18 21
27 34 37 41 42 39 36 32 33 37 34 39 36 28 33 35 42 36 39 39 34 42 43 41 27 13 22 20 23 29 25 26 11 23 21 23 24 21 24 22 25 30 25 16
25 24 26 27 38 38 34 32 36 34 33 33 34 35 35 36 40 42 43 36 39 35 29 28 33 19 32 42 29 17 32 29 23 18 22 19 19 23 21 18 18 28 29 21
24 25 24 31 36 35 32 32 34 35 30 30 32 40 39 36 35 36 34 38 40 39 38 29 27 25 31 43 30 7 13 28 26 19 20 19 15 18 17 18 19 19 27 21
24 23 24 32 35 37 34 32 28 31 35 32 28 31 35 37 31 31 29 31 32 33 30 27 26 30 43 44 40 32 22 14 23 22 29 19 23 9 20 12 10 19 28 24
23 22 24 29 31 33 35 34 33 34 31 31 37 39 40 34 24 24 30 26 25 24 32 23 25 23 25 20 27 39 47 42 32 27 34 28 31 28 27 27 21 27 32 33
21 20 22 22 25 29 31 34 36 35 30 30 32 31 30 33 37 42 36 31 28 25 28 28 30 30 24 20 23 25 27 29 34 37 40 35 35 33 30 29 29 27 32 31
19 19 21 20 22 26 28 32 35 34 37 34 33 34 39 39 39 43 50 42 34 30 32 35 28 26 24 33 36 38 39 35 35 30 29 27 25 25 24 21 17 13 10 9
14 16 18 22 20 22 26 27 29 31 32 32 31 27 28 36 41 48 55 58 50 42 39 32 27 28 31 36 43 45 46 44 46 47 47 48 49 48 46 45 45 44 40 35
14 15 16 16 18 20 21 22 23 25 29 31 31 32 31 33 38 40 40 44 48 48 54 50 41 44 53 53 52 54 53 52 49 54 54 52 55 58 57 56 52 50 48 45
16 14 14 10 15 16 16 17 18 19 21 24 26 27 28 29 30 31 36 37 37 38 44 51 53 56 59 64 65 63 59 59 58 54 54 59 50 48 49 48 47 44 43 42
21 19 18 15 14 13 14 16 18 18 19 21 25 23 27 30 33 32 32 33 36 39 41 41 42 46 48 50 52 55 59 60 55 53 55 55 51 48 46 48 52 49 48 47
Wind_Direction_500mb
270 275 275 265 263 257 267 261 249 270 281 263 287 295 13 8 328 331 71 88 40 125 122 139 144 142 140 139 137 138 138 140 143 147 149 151 150 147 147 148 153 156 165 172
266 269 273 269 265 254 259 271 274 275 269 258 258 269 298 315 325 311 47 89 170 157 158 149 147 144 141 139 139 140 141 145 149 152 153 153 151 153 152 152 156 164 172 162
257 258 257 262 248 246 248 261 264 267 273 270 268 275 284 287 291 295 325 130 190 175 164 166 150 145 143 142 141 140 138 140 144 149 154 157 159 148 152 159 160 151 145 142
269 285 248 242 253 247 278 275 282 260 261 272 279 286 274 273 278 272 279 196 214 180 166 165 147 148 145 143 143 143 140 141 144 141 151 153 154 155 162 159 168 152 148 132
243 236 273 288 355 233 260 252 254 258 270 271 260 263 261 259 264 261 263 239 211 177 168 155 153 152 149 147 146 145 136 132 153 148 155 155 159 159 162 165 157 154 137 116
259 254 260 53 33 341 331 271 244 291 255 264 249 252 250 222 228 296 247 184 189 170 165 160 154 156 153 152 142 128 140 152 147 154 149 154 156 163 156 158 152 155 127 117
240 252 264 355 9 309 265 304 345 18 333 303 273 258 310 1 305 322 310 189 171 162 163 162 158 156 154 145 140 149 148 141 144 144 148 158 159 167 166 170 168 157 134 124
239 241 254 355 315 242 284 319 315 309 329 313 298 300 274 274 281 304 314 173 169 160 166 155 159 158 151 136 150 158 150 134 147 156 159 156 165 167 172 178 168 161 147 131
241 268 288 291 283 273 272 272 270 280 301 300 286 278 270 262 285 275 294 176 164 161 155 156 160 159 144 148 147 146 135 138 142 151 154 161 171 178 177 180 182 178 175 160
278 281 271 294 309 347 351 259 235 256 287 286 282 275 266 257 259 275 213 166 169 156 152 154 159 158 146 151 146 139 136 140 146 149 151 156 160 171 178 187 188 182 183 161
307 325 321 5 2 351 2 22 310 292 294 283 282 239 309 302 257 212 196 160 151 153 150 155 158 151 150 154 153 145 140 137 140 138 143 146 141 121 141 169 168 160 173 160
328 345 335 352 347 352 356 7 3 348 345 340 333 23 20 336 269 190 180 143 144 146 151 155 158 152 153 165 157 147 152 157 145 142 141 132 122 118 125 138 153 152 150 153
348 338 355 359 351 353 352 10 20 19 13 24 38 61 51 58 90 139 121 131 142 148 151 154 156 154 159 165 163 159 167 142 146 140 146 140 130 110 117 129 149 168 174 179
18 8 360 1 352 3 25 19 40 44 43 53 56 78 73 75 78 80 78 96 118 135 147 152 154 152 163 160 158 162 160 150 171 137 136 147 138 132 124 128 129 139 147 148
22 25 11 355 13 24 19 19 38 41 42 49 58 74 73 74 78 90 88 107 139 122 97 147 140 140 162 160 160 160 155 167 162 135 134 130 138 147 139 134 126 135 139 143
23 31 17 14 18 30 24 24 31 32 45 54 66 61 70 83 88 105 113 114 141 119 99 83 89 126 135 153 163 160 164 174 154 142 141 131 150 143 151 130 130 124 133 156
26 37 17 18 17 32 38 33 40 37 46 55 67 85 81 88 89 94 109 114 132 148 146 136 110 130 153 137 176 173 165 177 181 156 151 145 134 135 139 145 147 147 131 124
49 50 38 21 24 31 39 46 37 47 38 53 63 76 84 84 94 98 103 102 118 136 148 147 131 115 168 175 183 193 166 166 177 171 150 153 146 140 142 144 135 136 128 106
52 54 41 37 37 43 44 46 40 53 47 52 67 74 69 72 86 98 109 117 113 112 117 121 127 118 145 169 186 169 144 160 176 178 149 139 154 154 150 146 146 155 141 138
61 54 50 45 42 43 49 53 58 53 64 52 64 70 80 78 70 88 100 103 101 103 108 115 111 126 136 142 149 151 162 130 132 133 134 152 172 170 139 134 110 118 134 136
71 61 59 52 50 46 48 53 59 61 59 67 64 64 63 66 88 96 93 96 97 102 110 119 118 123 136 151 165 162 167 174 171 157 154 141 142 149 146 161 143 131 114 123
89 77 70 65 56 57 54 55 58 62 64 63 66 70 71 63 56 72 79 79 88 107 118 122 116 115 121 120 126 154 159 158 161 164 167 163 162 163 160 162 172 163 165 164
101 97 90 87 81 70 61 58 58 58 60 55 62 67 71 77 83 86 77 78 83 99 118 116 119 117 117 115 114 115 117 123 128 134 136 142 144 138 139 141 143 152 166 162
118 109 101 97 94 87 79 73 72 72 72 72 69 68 73 79 81 82 80 75 79 86 93 101 121 123 124 120 117 118 114 117 116 117 119 117 113 113 111 109 106 101 99 104
149 134 123 105 91 94 93 83 76 72 72 72 69 71 79 86 81 77 74 75 67 67 76 88 98 105 102 105 108 110 111 110 111 112 110 109 106 102 101 101 98 94 93 88
170 175 146 130 114 106 104 101 95 87 81 78 76 76 75 76 73 78 78 75 77 76 80 78 79 93 104 104 99 97 97 98 101 98 97 99 99 97 94 89 90 89 89 83
183 180 161 161 144 126 115 113 111 107 107 102 92 84 84 84 81 79 79 80 83 83 82 82 83 87 84 81 88 98 98 94 87 87 84 84 82 80 80 81 83 85 83 83
Wind_Speed_850mb
49 55 47 34 40 25 34 39 42 41 25 28 50 59 18 21 27 25 24 13 4 7 22 35 44 46 46 45 44 41 40 38 36 33 30 29 29 28 27 27 25 21 17 15
43 46 51 46 44 35 37 50 49 45 41 29 44 50 32 25 25 26 16 13 13 16 26 33 46 47 46 44 40 37 36 34 32 31 30 30 29 30 27 26 24 20 20 11
37 40 43 39 43 39 39 46 44 43 41 32 35 36 30 31 27 28 14 9 22 32 31 39 47 47 44 41 39 38 35 33 31 30 33 33 32 31 28 25 26 19 15 11
18 25 18 30 27 21 21 29 43 45 40 37 35 40 45 39 32 25 20 6 27 39 48 33 47 45 42 42 40 37 33 30 30 29 31 30 31 29 28 24 22 17 13 11
10 19 31 37 7 20 20 39 38 41 39 30 37 39 40 41 34 31 26 18 28 42 51 40 48 45 44 42 37 34 34 25 24 33 30 32 31 30 25 23 20 15 12 11
8 10 9 10 16 46 23 29 31 31 38 33 26 21 18 15 23 12 21 28 38 48 60 47 49 45 44 40 37 31 28 27 28 26 28 30 30 27 22 19 16 13 12 10
24 16 12 16 23 23 21 2 15 17 12 18 15 25 17 7 16 25 15 23 54 57 68 49 50 47 42 40 38 30 32 29 30 27 27 31 28 24 21 19 18 16 14 11
8 13 10 18 32 20 27 43 36 35 19 22 31 31 27 27 24 25 22 29 59 68 59 53 50 46 42 40 33 30 34 32 32 28 28 28 23 20 20 21 19 16 14 13
5 8 24 41 42 72 82 70 59 43 34 26 29 36 32 25 23 28 31 49 62 66 61 51 48 46 43 40 36 33 36 33 30 29 27 21 22 22 22 21 18 18 16 13
8 8 23 32 37 53 26 28 38 40 42 37 33 41 25 12 28 33 20 66 61 61 58 52 48 45 42 47 29 37 35 31 27 26 22 20 13 16 17 22 22 18 20 18
21 9 34 14 44 53 45 23 9 21 31 38 22 10 10 17 19 20 38 46 55 54 52 51 51 48 45 43 41 43 34 32 25 18 21 13 19 14 11 16 16 17 17 20
8 42 22 25 42 47 37 32 25 22 24 17 9 8 14 16 10 32 33 49 47 47 50 51 52 51 46 44 39 39 30 28 23 24 21 21 18 17 12 11 19 21 18 22
13 30 29 29 31 40 34 30 30 27 32 29 26 25 14 14 18 24 42 45 48 50 50 51 49 46 45 48 39 33 28 29 22 22 32 28 20 18 17 21 21 24 22 14
32 30 28 35 31 38 27 32 33 31 29 30 22 30 30 27 26 49 36 39 49 49 50 48 43 40 36 37 35 31 28 26 23 29 21 27 21 20 21 18 17 17 17 16
28 32 23 34 33 35 38 33 35 38 34 32 28 33 43 39 38 36 39 48 63 45 41 37 37 29 28 37 34 33 27 27 20 27 25 25 22 24 15 22 24 19 24 25
29 33 30 38 41 40 34 36 36 40 40 38 39 36 31 32 34 43 47 43 45 54 42 26 22 15 11 36 34 32 24 24 13 25 20 23 24 24 26 26 25 21 18 21
27 34 37 41 42 39 36 32 33 37 34 39 36 28 33 35 42 36 39 39 34 42 43 41 27 13 22 20 23 29 25 26 11 23 21 23 24 21 24 22 25 30 25 16
25 24 26 27 38 38 34 32 36 34 33 33 34 35 35 36 40 42 43 36 39 35 29 28 33 19 32 42 29 17 32 29 23 18 22 19 19 23 21 18 18 28 29 21
24 25 24 31 36 35 32 32 34 35 30 30 32 40 39 36 35 36 34 38 40 39 38 29 27 25 31 43 30 7 13 28 26 19 20 19 15 18 17 18 19 19 27 21
24 23 24 32 35 37 34 32 28 31 35 32 28 31 35 37 31 31 29 31 32 33 30 27 26 30 43 44 40 32 22 14 23 22 29 19 23 9 20 12 10 19 28 24
23 22 24 29 31 33 35 34 33 34 31 31 37 39 40 34 24 24 30 26 25 24 32 23 25 23 25 20 27 39 47 42 32 27 34 28 31 28 27 27 21 27 32 33
21 20 22 22 25 29 31 34 36 35 30 30 32 31 30 33 37 42 36 31 28 25 28 28 30 30 24 20 23 25 27 29 34 37 40 35 35 33 30 29 29 27 32 31
19 19 21 20 22 26 28 32 35 34 37 34 33 34 39 39 39 43 50 42 34 30 32 35 28 26 24 33 36 38 39 35 35 30 29 27 25 25 24 21 17 13 10 9
14 16 18 22 20 22 26 27 29 31 32 32 31 27 28 36 41 48 55 58 50 42 39 32 27 28 31 36 43 45 46 44 46 47 47 48 49 48 46 45 45 44 40 35
14 15 16 16 18 20 21 22 23 25 29 31 31 32 31 33 38 40 40 44 48 48 54 50 41 44 53 53 52 54 53 52 49 54 54 52 55 58 57 56 52 50 48 45
16 14 14 10 15 16 16 17 18 19 21 24 26 27 28 29 30 31 36 37 37 38 44 51 53 56 59 64 65 63 59 59 58 54 54 59 50 48 49 48 47 44 43 42
21 19 18 15 14 13 14 16 18 18 19 21 25 23 27 30 33 32 32 33 36 39 41 41 42 46 48 50 52 55 59 60 55 53 55 55 51 48 46 48 52 49 48 47
Wind_Direction_850mb
270 275 275 265 263 257 267 261 249 270 281 263 287 295 13 8 328 331 71 88 40 125 122 139 144 142 140 139 137 138 138 140 143 147 149 151 150 147 147 148 153 156 165 172
266 269 273 269 265 254 259 271 274 275 269 258 258 269 298 315 325 311 47 89 170 157 158 149 147 144 141 139 139 140 141 145 149 152 153 153 151 153 152 152 156 164 172 162
257 258 257 262 248 246 248 261 264 267 273 270 268 275 284 287 291 295 325 130 190 175 164 166 150 145 143 142 141 140 138 140 144 149 154 157 159 148 152 159 160 151 145 142
269 285 248 242 253 247 278 275 282 260 261 272 279 286 274 273 278 272 279 196 214 180 166 165 147 148 145 143 143 143 140 141 144 141 151 153 154 155 162 159 168 152 148 132
243 236 273 288 355 233 260 252 254 258 270 271 260 263 261 259 264 261 263 239 211 177 168 155 153 152 149 147 146 145 136 132 153 148 155 155 159 159 162 165 157 154 137 116
259 254 260 53 33 341 331 271 244 291 255 264 249 252 250 222 228 296 247 184 189 170 165 160 154 156 153 152 142 128 140 152 147 154 149 154 156 163 156 158 152 155 127 117
240 252 264 355 9 309 265 304 345 18 333 303 273 258 310 1 305 322 310 189 171 162 163 162 158 156 154 145 140 149 148 141 144 144 148 158 159 167 166 170 168 157 134 124
239 241 254 355 315 242 284 319 315 309 329 313 298 300 274 274 281 304 314 173 169 160 166 155 159 158 151 136 150 158 150 134 147 156 159 156 165 167 172 178 168 161 147 131
241 268 288 291 283 273 272 272 270 280 301 300 286 278 270 262 285 275 294 176 164 161 155 156 160 159 144 148 147 146 135 138 142 151 154 161 171 178 177 180 182 178 175 160
278 281 271 294 309 347 351 259 235 256 287 286 282 275 266 257 259 275 213 166 169 156 152 154 159 158 146 151 146 139 136 140 146 149 151 156 160 171 178 187 188 182 183 161
307 325 321 5 2 351 2 22 310 292 294 283 282 239 309 302 257 212 196 160 151 153 150 155 158 151 150 154 153 145 140 137 140 138 143 146 141 121 141 169 168 160 173 160
328 345 335 352 347 352 356 7 3 348 345 340 333 23 20 336 269 190 180 143 144 146 151 155 158 152 153 165 157 147 152 157 145 142 141 132 122 118 125 138 153 152 150 153
348 338 355 359 351 353 352 10 20 19 13 24 38 61 51 58 90 139 121 131 142 148 151 154 156 154 159 165 163 159 167 142 146 140 146 140 130 110 117 129 149 168 174 179
18 8 360 1 352 3 25 19 40 44 43 53 56 78 73 75 78 80 78 96 118 135 147 152 154 152 163 160 158 162 160 150 171 137 136 147 138 132 124 128 129 139 147 148
22 25 11 355 13 24 19 19 38 41 42 49 58 74 73 74 78 90 88 107 139 122 97 147 140 140 162 160 160 160 155 167 162 135 134 130 138 147 139 134 126 135 139 143
23 31 17 14 18 30 24 24 31 32 45 54 66 61 70 83 88 105 113 114 141 119 99 83 89 126 135 153 163 160 164 174 154 142 141 131 150 143 151 130 130 124 133 156
26 37 17 18 17 32 38 33 40 37 46 55 67 85 81 88 89 94 109 114 132 148 146 136 110 130 153 137 176 173 165 177 181 156 151 145 134 135 139 145 147 147 131 124
49 50 38 21 24 31 39 46 37 47 38 53 63 76 84 84 94 98 103 102 118 136 148 147 131 115 168 175 183 193 166 166 177 171 150 153 146 140 142 144 135 136 128 106
52 54 41 37 37 43 44 46 40 53 47 52 67 74 69 72 86 98 109 117 113 112 117 121 127 118 145 169 186 169 144 160 176 178 149 139 154 154 150 146 146 155 141 138
61 54 50 45 42 43 49 53 58 53 64 52 64 70 80 78 70 88 100 103 101 103 108 115 111 126 136 142 149 151 162 130 132 133 134 152 172 170 139 134 110 118 134 136
71 61 59 52 50 46 48 53 59 61 59 67 64 64 63 66 88 96 93 96 97 102 110 119 118 123 136 151 165 162 167 174 171 157 154 141 142 149 146 161 143 131 114 123
89 77 70 65 56 57 54 55 58 62 64 63 66 70 71 63 56 72 79 79 88 107 118 122 116 115 121 120 126 154 159 158 161 164 167 163 162 163 160 162 172 163 165 164
101 97 90 87 81 70 61 58 58 58 60 55 62 67 71 77 83 86 77 78 83 99 118 116 119 117 117 115 114 115 117 123 128 134 136 142 144 138 139 141 143 152 166 162
118 109 101 97 94 87 79 73 72 72 72 72 69 68 73 79 81 82 80 75 79 86 93 101 121 123 124 120 117 118 114 117 116 117 119 117 113 113 111 109 106 101 99 104
149 134 123 105 91 94 93 83 76 72 72 72 69 71 79 86 81 77 74 75 67 67 76 88 98 105 102 105 108 110 111 110 111 112 110 109 106 102 101 101 98 94 93 88
170 175 146 130 114 106 104 101 95 87 81 78 76 76 75 76 73 78 78 75 77 76 80 78 79 93 104 104 99 97 97 98 101 98 97 99 99 97 94 89 90 89 89 83
183 180 161 161 144 126 115 113 111 107 107 102 92 84 84 84 81 79 79 80 83 83 82 82 83 87 84 81 88 98 98 94 87 87 84 84 82 80 80 81 83 85 83 83